Regional Weather Roundup
Issued by NWS

Home | Current Version | Previous Version | Graphics & Text | Print | Product List | Glossary Off
Versions: 1 2 3 4 5 6 7 8 9 10 11 12 13 14 15 16 17 18 19 20 21 22 23 24 25 26 27 28 29 30 31 32 33 34 35 36 37 38 39 40 41 42 43 44 45 46 47 48 49 50

000
ASUS43 KTOP 290508
RWRKS

WEATHER ROUNDUP FOR KANSAS
NATIONAL WEATHER SERVICE GOODLAND KS
1100 PM CST WED JAN 28 2015

NOTE:  "FAIR" INDICATES FEW OR NO CLOUDS BELOW 12,000 FEET WITH NO
SIGNIFICANT WEATHER AND/OR OBSTRUCTIONS TO VISIBILITY.

KSZ001>006-013>018-027>032-041>047-290600-
NORTHWEST KANSAS

CITY           SKY/WX    TMP DP  RH WIND       PRES   REMARKS
GOODLAND       CLEAR     40  35  83 NW14      30.21R WCI  32
HAYS           CLEAR     52  27  37 NW14      30.08R
HILL CITY      CLEAR     49  32  52 NW15      30.11R
RUSSELL        CLEAR     52  30  43 NW18      30.03R
$$

KSZ061>065-074>080-084>089-290600-
SOUTHWEST KANSAS

CITY           SKY/WX    TMP DP  RH WIND       PRES   REMARKS
DODGE CITY     CLEAR     51  32  48 NW17G25   30.13R
ELKHART          N/A     47  29  50 NW8         N/A
GARDEN CITY    CLEAR     48  34  58 N28G35    30.13R
LIBERAL        PTCLDY    43  28  56 NW9         N/A
PRATT          CLEAR     50  32  50 NW12      30.07R
$$

KSZ066>073-081>083-090>101-290600-
SOUTHEAST KANSAS

CITY           SKY/WX    TMP DP  RH WIND       PRES   REMARKS
CHANUTE        CLOUDY    58  37  45 W7        29.88R
COFFEYVILLE    CLOUDY    60  37  42 SW6       29.89R
HUTCHINSON     CLEAR     56  30  37 NW13      30.01R
MEDICINE LODGE   N/A     58  33  39 N16       30.04R
NEWTON         CLEAR     55  28  35 NW14      29.99R
PARSONS        CLOUDY    58  39  49 SW6       29.89R
WICHITA INTL   LGT RAIN  59  31  34 NW17      29.98R
WICHITA JABRA  CLEAR     57  33  40 NW13      29.97R
WICHITA MCCONL CLEAR     59  33  38 NW18G28   29.97R
WINFIELD       PTCLDY    56  26  31 NW13      29.97R
$$

KSZ007>012-019>026-033>040-048>060-102>105-290600-
NORTHEAST KANSAS

CITY           SKY/WX    TMP DP  RH WIND       PRES   REMARKS
CONCORDIA      PTCLDY    51  30  44 NW12      29.97R
EMPORIA        CLEAR     56  33  42 NW15G23   29.91R
LAWRENCE       CLEAR     53  34  48 NW13      29.85R
MANHATTAN      CLEAR     56  31  38 NW9       29.93R
MARYSVILLE     PTCLDY    52  34  50 N24G32    29.91R
OLATHE IND     CLEAR     55  35  47 NW15      29.84R
OLATHE EXE     CLEAR     58  35  42 NW15G22   29.81R
SALINA         CLEAR     51  30  44 W10       29.99R
TOPEKA BILLARD CLEAR     56  34  43 NW15G26   29.88R
TOPEKA FORBES  CLEAR     57  34  41 NW22      29.88R
$$


USA.gov is the U.S. government's official web portal to all federal, state and local government web resources and services.